Tracking 18840 objects as of 20-November-2017
HD Live streaming from Space Station
objects crossing your sky now

CZ-3B DEB

Track CZ-3B DEB now!


NORAD ID: 40158
Int'l Code: 2010-042K
Perigee: 995.7 km
Apogee: 41,582.9 km
Inclination: 26.2 °
Period: 763.0 minutes
Semi major axis: 27660 km
RCS: Unknown
Launch date: September 4, 2010
Source: People's Republic of China (PRC)
Launch site: Xichang Space Center, China (XSC)

Note: This is SATELLITE DEBRIS
aabbcc
Your satellite tracking list
Your tracking list is empty




NASA's NSSDC Master Catalog

Two Line Element Set (TLE):
1 40158U 10042K   17317.37632502  .00000014  00000-0  00000+0 0  9996
2 40158  26.2083 283.4291 7336720 204.1458 355.2877  1.88719974954843
Source of the keplerian elements: AFSPC